Year,Month,Day,Hour,Minute,Value (Times are PST for temperature in C)
2015,07,06,00,00,17.70
2015,07,06,00,05,17.70
2015,07,06,00,06,17.70
2015,07,06,00,07,17.70
2015,07,06,00,08,17.60
2015,07,06,00,09,17.60
2015,07,06,00,10,17.60
2015,07,06,00,11,17.60
2015,07,06,00,12,17.60
2015,07,06,00,13,17.60
2015,07,06,00,14,17.60
2015,07,06,00,15,17.60
2015,07,06,00,16,17.60
2015,07,06,00,17,17.60
2015,07,06,00,18,17.60
2015,07,06,00,19,17.60
2015,07,06,00,20,17.60
2015,07,06,00,21,17.60
2015,07,06,00,22,17.60
2015,07,06,00,23,17.60
2015,07,06,00,24,17.60
2015,07,06,00,25,17.50
2015,07,06,00,26,17.50
2015,07,06,00,27,17.50
2015,07,06,00,28,17.40
2015,07,06,00,29,17.40
2015,07,06,00,30,17.40
2015,07,06,00,31,17.40
2015,07,06,00,32,17.40
2015,07,06,00,33,17.30
2015,07,06,00,34,17.30
2015,07,06,00,35,17.30
2015,07,06,00,36,17.30
2015,07,06,00,37,17.30
2015,07,06,00,38,17.30
2015,07,06,00,39,17.30
2015,07,06,00,40,17.30
2015,07,06,00,41,17.30
2015,07,06,00,42,17.20
2015,07,06,00,43,17.20
2015,07,06,00,44,17.20
2015,07,06,00,45,17.20
2015,07,06,00,46,17.10
2015,07,06,00,47,17.10
2015,07,06,00,48,17.10
2015,07,06,00,49,17.10
2015,07,06,00,50,17.00
2015,07,06,00,51,17.00
2015,07,06,00,52,17.00
2015,07,06,00,53,17.00
2015,07,06,00,54,16.90
2015,07,06,00,55,16.90
2015,07,06,00,56,16.90
2015,07,06,00,57,17.00
2015,07,06,00,58,17.00
2015,07,06,00,59,17.10
2015,07,06,01,00,17.10
2015,07,06,01,01,17.10
2015,07,06,01,02,17.10
2015,07,06,01,03,17.30
2015,07,06,01,04,17.40
2015,07,06,01,05,17.50
2015,07,06,01,06,17.60
2015,07,06,01,07,17.70
2015,07,06,01,08,17.80
2015,07,06,01,09,17.90
2015,07,06,01,10,17.90
2015,07,06,01,11,17.90
2015,07,06,01,12,17.90
2015,07,06,01,13,17.90
2015,07,06,01,14,17.90
2015,07,06,01,15,17.90
2015,07,06,01,16,17.80
2015,07,06,01,17,17.80
2015,07,06,01,18,17.70
2015,07,06,01,19,17.70
2015,07,06,01,20,17.80
2015,07,06,01,21,17.80
2015,07,06,01,22,17.80
2015,07,06,01,23,17.80
2015,07,06,01,24,17.80
2015,07,06,01,25,17.80
2015,07,06,01,26,17.80
2015,07,06,01,27,17.80
2015,07,06,01,28,17.70
2015,07,06,01,29,17.60
2015,07,06,01,30,17.60
2015,07,06,01,31,17.60
2015,07,06,01,32,17.60
2015,07,06,01,33,17.60
2015,07,06,01,34,17.60
2015,07,06,01,35,17.60
2015,07,06,01,36,17.60
2015,07,06,01,37,17.60
2015,07,06,01,38,17.60
2015,07,06,01,39,17.60
2015,07,06,01,40,17.60
2015,07,06,01,41,17.60
2015,07,06,01,42,17.60
2015,07,06,01,43,17.60
2015,07,06,01,44,17.60
2015,07,06,01,45,17.60
2015,07,06,01,46,17.60
2015,07,06,01,47,17.50
2015,07,06,01,48,17.50
2015,07,06,01,49,17.40
2015,07,06,01,50,17.30
2015,07,06,01,51,17.30
2015,07,06,01,52,17.40
2015,07,06,01,53,17.40
2015,07,06,01,54,17.40
2015,07,06,01,55,17.40
2015,07,06,01,56,17.30
2015,07,06,01,57,17.30
2015,07,06,01,58,17.40
2015,07,06,01,59,17.40
2015,07,06,02,00,17.40
2015,07,06,02,01,17.40
2015,07,06,02,02,17.40
2015,07,06,02,03,17.40
2015,07,06,02,04,17.40
2015,07,06,02,05,17.40
2015,07,06,02,06,17.30
2015,07,06,02,07,17.30
2015,07,06,02,08,17.20
2015,07,06,02,09,17.10
2015,07,06,02,10,17.00
2015,07,06,02,11,16.90
2015,07,06,02,12,16.90
2015,07,06,02,13,16.80
2015,07,06,02,14,16.80
2015,07,06,02,15,16.80
2015,07,06,02,16,16.70
2015,07,06,02,17,16.70
2015,07,06,02,18,16.70
2015,07,06,02,19,16.60
2015,07,06,02,20,16.60
2015,07,06,02,21,16.60
2015,07,06,02,22,16.60
2015,07,06,02,23,16.60
2015,07,06,02,24,16.60
2015,07,06,02,25,16.60
2015,07,06,02,26,16.60
2015,07,06,02,27,16.60
2015,07,06,02,28,16.70
2015,07,06,02,29,16.70
2015,07,06,02,30,16.70
2015,07,06,02,31,16.60
2015,07,06,02,32,16.60
2015,07,06,02,33,16.60
2015,07,06,02,34,16.60
2015,07,06,02,35,16.60
2015,07,06,02,36,16.60
2015,07,06,02,37,16.60
2015,07,06,02,38,16.60
2015,07,06,02,39,16.60
2015,07,06,02,40,16.60
2015,07,06,02,41,16.60
2015,07,06,02,42,16.60
2015,07,06,02,43,16.60
2015,07,06,02,44,16.60
2015,07,06,02,45,16.60
2015,07,06,02,46,16.60
2015,07,06,02,47,16.50
2015,07,06,02,48,16.50
2015,07,06,02,49,16.50
2015,07,06,02,50,16.50
2015,07,06,02,51,16.50
2015,07,06,02,52,16.50
2015,07,06,02,53,16.50
2015,07,06,02,54,16.60
2015,07,06,02,55,16.60
2015,07,06,02,56,16.60
2015,07,06,02,57,16.60
2015,07,06,02,58,16.70
2015,07,06,02,59,16.70
2015,07,06,03,00,16.80
2015,07,06,03,01,16.80
2015,07,06,03,02,16.90
2015,07,06,03,03,16.90
2015,07,06,03,04,16.90
2015,07,06,03,05,16.90
2015,07,06,03,06,16.90
2015,07,06,03,07,16.90
2015,07,06,03,08,16.90
2015,07,06,03,09,16.90
2015,07,06,03,10,16.90
2015,07,06,03,11,17.00
2015,07,06,03,12,17.00
2015,07,06,03,13,17.00
2015,07,06,03,14,17.00
2015,07,06,03,15,17.00
2015,07,06,03,16,17.00
2015,07,06,03,17,17.00
2015,07,06,03,18,17.00
2015,07,06,03,19,17.00
2015,07,06,03,20,17.00
2015,07,06,03,21,17.00
2015,07,06,03,22,17.00
2015,07,06,03,23,17.00
2015,07,06,03,24,17.00
2015,07,06,03,25,17.00
2015,07,06,03,26,17.00
2015,07,06,03,27,17.00
2015,07,06,03,28,17.00
2015,07,06,03,29,17.10
2015,07,06,03,30,17.10
2015,07,06,03,31,17.10
2015,07,06,03,32,17.10
2015,07,06,03,33,17.20
2015,07,06,03,34,17.20
2015,07,06,03,35,17.20
2015,07,06,03,36,17.30
2015,07,06,03,37,17.30
2015,07,06,03,38,17.30
2015,07,06,03,39,17.30
2015,07,06,03,40,17.30
2015,07,06,03,41,17.20
2015,07,06,03,42,17.20
2015,07,06,03,43,17.20
2015,07,06,03,44,17.20
2015,07,06,03,45,17.20
2015,07,06,03,46,17.20
2015,07,06,03,47,17.20
2015,07,06,03,48,17.10
2015,07,06,03,49,17.10
2015,07,06,03,50,17.10
2015,07,06,03,51,17.10
2015,07,06,03,52,17.10
2015,07,06,03,53,17.10
2015,07,06,03,54,17.10
2015,07,06,03,55,17.10
2015,07,06,03,56,17.10
2015,07,06,03,57,17.10
2015,07,06,03,58,17.10
2015,07,06,03,59,17.10
2015,07,06,04,00,17.10
2015,07,06,04,01,17.10
2015,07,06,04,02,17.10
2015,07,06,04,03,17.10
2015,07,06,04,04,17.10
2015,07,06,04,05,17.10
2015,07,06,04,06,17.10
2015,07,06,04,07,17.10
2015,07,06,04,08,17.10
2015,07,06,04,09,17.10
2015,07,06,04,10,17.10
2015,07,06,04,11,17.10
2015,07,06,04,12,17.10
2015,07,06,04,13,17.10
2015,07,06,04,14,17.10
2015,07,06,04,15,17.10
2015,07,06,04,16,17.10
2015,07,06,04,17,17.10
2015,07,06,04,18,17.00
2015,07,06,04,19,17.00
2015,07,06,04,20,17.00
2015,07,06,04,21,17.00
2015,07,06,04,22,17.00
2015,07,06,04,23,16.90
2015,07,06,04,24,16.90
2015,07,06,04,25,17.00
2015,07,06,04,26,17.00
2015,07,06,04,27,17.00
2015,07,06,04,28,17.10
2015,07,06,04,29,17.10
2015,07,06,04,30,17.10
2015,07,06,04,31,17.10
2015,07,06,04,32,17.10
2015,07,06,04,33,17.10
2015,07,06,04,34,17.10
2015,07,06,04,35,17.20
2015,07,06,04,36,17.20
2015,07,06,04,37,17.20
2015,07,06,04,38,17.20
2015,07,06,04,39,17.20
2015,07,06,04,40,17.20
2015,07,06,04,41,17.20
2015,07,06,04,42,17.20
2015,07,06,04,43,17.20
2015,07,06,04,44,17.20
2015,07,06,04,45,17.20
2015,07,06,04,46,17.20
2015,07,06,04,47,17.20
2015,07,06,04,48,17.10
2015,07,06,04,49,17.10
2015,07,06,04,50,17.10
2015,07,06,04,51,17.10
2015,07,06,04,52,17.20
2015,07,06,04,53,17.20
2015,07,06,04,54,17.20
2015,07,06,04,55,17.20
2015,07,06,04,56,17.20
2015,07,06,04,57,17.10
2015,07,06,04,58,17.10
2015,07,06,04,59,17.10
2015,07,06,05,00,17.00
2015,07,06,05,01,17.00
2015,07,06,05,02,17.00
2015,07,06,05,03,16.90
2015,07,06,05,04,16.90
2015,07,06,05,05,16.90
2015,07,06,05,06,16.80
2015,07,06,05,07,16.80
2015,07,06,05,08,16.80
2015,07,06,05,09,16.70
2015,07,06,05,10,16.70
2015,07,06,05,11,16.60
2015,07,06,05,12,16.60
2015,07,06,05,13,16.50
2015,07,06,05,14,16.40
2015,07,06,05,15,16.40
2015,07,06,05,16,16.30
2015,07,06,05,17,16.30
2015,07,06,05,18,16.20
2015,07,06,05,19,16.20
2015,07,06,05,20,16.20
2015,07,06,05,21,16.20
2015,07,06,05,22,16.20
2015,07,06,05,23,16.20
2015,07,06,05,24,16.20
2015,07,06,05,25,16.30
2015,07,06,05,26,16.30
2015,07,06,05,27,16.30
2015,07,06,05,28,16.30
2015,07,06,05,29,16.30
2015,07,06,05,30,16.30
2015,07,06,05,31,16.30
2015,07,06,05,32,16.30
2015,07,06,05,33,16.30
2015,07,06,05,34,16.40
2015,07,06,05,35,16.40
2015,07,06,05,36,16.40
2015,07,06,05,37,16.40
2015,07,06,05,38,16.30
2015,07,06,05,39,16.30
2015,07,06,05,40,16.30
2015,07,06,05,41,16.30
2015,07,06,05,42,16.30
2015,07,06,05,43,16.30
2015,07,06,05,44,16.30
2015,07,06,05,45,16.20
2015,07,06,05,46,16.20
2015,07,06,05,47,16.20
2015,07,06,05,48,16.20
2015,07,06,05,49,16.20
2015,07,06,05,50,16.20
2015,07,06,05,51,16.20
2015,07,06,05,52,16.20
2015,07,06,05,53,16.20
2015,07,06,05,54,16.20
2015,07,06,05,55,16.20
2015,07,06,05,56,16.20
2015,07,06,05,57,16.20
2015,07,06,05,58,16.30
2015,07,06,05,59,16.30
2015,07,06,06,00,16.30
2015,07,06,06,01,16.30
2015,07,06,06,02,16.20
2015,07,06,06,03,16.20
2015,07,06,06,04,16.20
2015,07,06,06,05,16.20
2015,07,06,06,06,16.20
2015,07,06,06,07,16.20
2015,07,06,06,08,16.20
2015,07,06,06,09,16.20
2015,07,06,06,10,16.20
2015,07,06,06,11,16.10
2015,07,06,06,12,16.10
2015,07,06,06,13,16.10
2015,07,06,06,14,16.10
2015,07,06,06,15,16.10
2015,07,06,06,16,16.10
2015,07,06,06,17,16.10
2015,07,06,06,18,16.10
2015,07,06,06,19,16.10
2015,07,06,06,20,16.10
2015,07,06,06,21,16.10
2015,07,06,06,22,16.10
2015,07,06,06,23,16.10
2015,07,06,06,24,16.10
2015,07,06,06,25,16.10
2015,07,06,06,26,16.10
2015,07,06,06,27,16.10
2015,07,06,06,28,16.10
2015,07,06,06,29,16.10
2015,07,06,06,30,16.10
2015,07,06,06,31,16.10
2015,07,06,06,32,16.10
2015,07,06,06,33,16.20
2015,07,06,06,34,16.20
2015,07,06,06,35,16.20
2015,07,06,06,36,16.20
2015,07,06,06,37,16.20
2015,07,06,06,38,16.20
2015,07,06,06,39,16.20
2015,07,06,06,40,16.20
2015,07,06,06,41,16.20
2015,07,06,06,42,16.20
2015,07,06,06,43,16.20
2015,07,06,06,44,16.20
2015,07,06,06,45,16.20
2015,07,06,06,46,16.20
2015,07,06,06,47,16.20
2015,07,06,06,48,16.20
2015,07,06,06,49,16.20
2015,07,06,06,50,16.20
2015,07,06,06,51,16.20
2015,07,06,06,52,16.20
2015,07,06,06,53,16.20
2015,07,06,06,54,16.20
2015,07,06,06,55,16.20
2015,07,06,06,56,16.20
2015,07,06,06,57,16.20
2015,07,06,06,58,16.20
2015,07,06,06,59,16.20
2015,07,06,07,00,16.20
2015,07,06,07,01,16.20
2015,07,06,07,02,16.20
2015,07,06,07,03,16.20
2015,07,06,07,04,16.20
2015,07,06,07,05,16.20
2015,07,06,07,06,16.20
2015,07,06,07,07,16.20
2015,07,06,07,08,16.20
2015,07,06,07,09,16.20
2015,07,06,07,10,16.30
2015,07,06,07,11,16.30
2015,07,06,07,12,16.30
2015,07,06,07,13,16.30
2015,07,06,07,14,16.30
2015,07,06,07,15,16.40
2015,07,06,07,16,16.40
2015,07,06,07,17,16.40
2015,07,06,07,18,16.40
2015,07,06,07,19,16.40
2015,07,06,07,20,16.40
2015,07,06,07,21,16.50
2015,07,06,07,22,16.50
2015,07,06,07,23,16.50
2015,07,06,07,24,16.50
2015,07,06,07,25,16.50
2015,07,06,07,26,16.50
2015,07,06,07,27,16.60
2015,07,06,07,28,16.60
2015,07,06,07,29,16.60
2015,07,06,07,30,16.60
2015,07,06,07,31,16.60
2015,07,06,07,32,16.70
2015,07,06,07,33,16.70
2015,07,06,07,34,16.70
2015,07,06,07,35,16.70
2015,07,06,07,36,16.80
2015,07,06,07,37,16.80
2015,07,06,07,38,16.80
2015,07,06,07,39,16.90
2015,07,06,07,40,16.90
2015,07,06,07,41,16.90
2015,07,06,07,42,17.00
2015,07,06,07,43,17.00
2015,07,06,07,44,17.10
2015,07,06,07,45,17.10
2015,07,06,07,46,17.10
2015,07,06,07,47,17.20
2015,07,06,07,48,17.20
2015,07,06,07,49,17.30
2015,07,06,07,50,17.30
2015,07,06,07,51,17.40
2015,07,06,07,52,17.40
2015,07,06,07,53,17.40
2015,07,06,07,54,17.50
2015,07,06,07,55,17.60
2015,07,06,07,56,17.70
2015,07,06,07,57,17.70
2015,07,06,07,58,17.80
2015,07,06,07,59,17.80
2015,07,06,08,00,17.90
2015,07,06,08,01,18.00
2015,07,06,08,02,18.00
2015,07,06,08,03,18.00
2015,07,06,08,04,18.10
2015,07,06,08,05,18.10
2015,07,06,08,06,18.10
2015,07,06,08,07,18.10
2015,07,06,08,08,18.10
2015,07,06,08,09,18.20
2015,07,06,08,10,18.20
2015,07,06,08,11,18.20
2015,07,06,08,12,18.20
2015,07,06,08,13,18.20
2015,07,06,08,14,18.20
2015,07,06,08,15,18.20
2015,07,06,08,16,18.30
2015,07,06,08,17,18.30
2015,07,06,08,18,18.40
2015,07,06,08,19,18.40
2015,07,06,08,20,18.50
2015,07,06,08,21,18.60
2015,07,06,08,22,18.60
2015,07,06,08,23,18.60
2015,07,06,08,24,18.70
2015,07,06,08,25,18.70
2015,07,06,08,26,18.70
2015,07,06,08,27,18.70
2015,07,06,08,28,18.70
2015,07,06,08,29,18.80
2015,07,06,08,30,18.80
2015,07,06,08,31,18.80
2015,07,06,08,32,18.80
2015,07,06,08,33,18.80
2015,07,06,08,34,18.80
2015,07,06,08,35,18.90
2015,07,06,08,36,18.90
2015,07,06,08,37,18.90
2015,07,06,08,38,19.00
2015,07,06,08,39,19.00
2015,07,06,08,40,19.00
2015,07,06,08,41,19.00
2015,07,06,08,42,19.00
2015,07,06,08,43,19.00
2015,07,06,08,44,19.00
2015,07,06,08,45,19.00
2015,07,06,08,46,19.00
2015,07,06,08,47,19.00
2015,07,06,08,48,19.00
2015,07,06,08,49,19.00
2015,07,06,08,50,19.00
2015,07,06,08,51,19.10
2015,07,06,08,52,19.10
2015,07,06,08,53,19.10
2015,07,06,08,54,19.10
2015,07,06,08,55,19.10
2015,07,06,08,56,19.20
2015,07,06,08,57,19.20
2015,07,06,08,58,19.20
2015,07,06,08,59,19.20
2015,07,06,09,00,19.20
2015,07,06,09,01,19.20
2015,07,06,09,02,19.20
2015,07,06,09,03,19.20
2015,07,06,09,04,19.20
2015,07,06,09,05,19.20
2015,07,06,09,06,19.30
2015,07,06,09,07,19.30
2015,07,06,09,08,19.30
2015,07,06,09,09,19.30
2015,07,06,09,10,19.30
2015,07,06,09,11,19.30
2015,07,06,09,12,19.30
2015,07,06,09,13,19.40
2015,07,06,09,14,19.40
2015,07,06,09,15,19.40
2015,07,06,09,16,19.40
2015,07,06,09,17,19.50
2015,07,06,09,18,19.50
2015,07,06,09,19,19.60
2015,07,06,09,20,19.70
2015,07,06,09,21,19.70
2015,07,06,09,22,19.70
2015,07,06,09,23,19.80
2015,07,06,09,24,19.80
2015,07,06,09,25,19.80
2015,07,06,09,26,19.70
2015,07,06,09,27,19.70
2015,07,06,09,28,19.80
2015,07,06,09,29,19.80
2015,07,06,09,30,19.80
2015,07,06,09,31,19.80
2015,07,06,09,32,19.90
2015,07,06,09,33,19.90
2015,07,06,09,34,19.90
2015,07,06,09,35,20.00
2015,07,06,09,36,20.10
2015,07,06,09,37,20.10
2015,07,06,09,38,20.10
2015,07,06,09,39,20.20
2015,07,06,09,40,20.30
2015,07,06,09,41,20.40
2015,07,06,09,42,20.50
2015,07,06,09,43,20.50
2015,07,06,09,44,20.60
2015,07,06,09,45,20.70
2015,07,06,09,46,20.70
2015,07,06,09,47,20.60
2015,07,06,09,48,20.60
2015,07,06,09,49,20.50
2015,07,06,09,50,20.50
2015,07,06,09,51,20.50
2015,07,06,09,52,20.40
2015,07,06,09,53,20.40
2015,07,06,09,54,20.40
2015,07,06,09,55,20.40
2015,07,06,09,56,20.40
2015,07,06,09,57,20.40
2015,07,06,09,58,20.40
2015,07,06,09,59,20.40
2015,07,06,10,00,20.40
2015,07,06,10,01,20.50
2015,07,06,10,02,20.50
2015,07,06,10,03,20.40
2015,07,06,10,04,20.40
2015,07,06,10,05,20.30
2015,07,06,10,06,20.20
2015,07,06,10,07,20.10
2015,07,06,10,08,20.10
2015,07,06,10,09,20.10
2015,07,06,10,10,20.20
2015,07,06,10,11,20.20
2015,07,06,10,12,20.30
2015,07,06,10,13,20.30
2015,07,06,10,14,20.20
2015,07,06,10,15,20.20
2015,07,06,10,16,20.20
2015,07,06,10,17,20.10
2015,07,06,10,18,20.10
2015,07,06,10,19,20.10
2015,07,06,10,20,20.10
2015,07,06,10,21,20.10
2015,07,06,10,22,20.10
2015,07,06,10,23,20.10
2015,07,06,10,24,20.10
2015,07,06,10,25,20.10
2015,07,06,10,26,20.10
2015,07,06,10,27,20.10
2015,07,06,10,28,20.10
2015,07,06,10,29,20.10
2015,07,06,10,30,20.20
2015,07,06,10,31,20.20
2015,07,06,10,32,20.30
2015,07,06,10,33,20.40
2015,07,06,10,34,20.50
2015,07,06,10,35,20.50
2015,07,06,10,36,20.60
2015,07,06,10,37,20.70
2015,07,06,10,38,20.80
2015,07,06,10,39,20.80
2015,07,06,10,40,20.90
2015,07,06,10,41,20.90
2015,07,06,10,42,21.00
2015,07,06,10,43,21.00
2015,07,06,10,44,21.00
2015,07,06,10,45,21.00
2015,07,06,10,46,21.00
2015,07,06,10,47,21.10
2015,07,06,10,48,21.20
2015,07,06,10,49,21.20
2015,07,06,10,50,21.30
2015,07,06,10,51,21.30
2015,07,06,10,52,21.30
2015,07,06,10,53,21.30
2015,07,06,10,54,21.30
2015,07,06,10,55,21.30
2015,07,06,10,56,21.30
2015,07,06,10,57,21.30
2015,07,06,10,58,21.30
2015,07,06,10,59,21.30
2015,07,06,11,00,21.20
2015,07,06,11,01,21.20
2015,07,06,11,02,21.10
2015,07,06,11,03,21.10
2015,07,06,11,04,21.00
2015,07,06,11,05,20.90
2015,07,06,11,06,20.90
2015,07,06,11,07,20.80
2015,07,06,11,08,20.80
2015,07,06,11,09,20.70
2015,07,06,11,10,20.80
2015,07,06,11,11,20.80
2015,07,06,11,12,20.80
2015,07,06,11,13,20.80
2015,07,06,11,14,20.80
2015,07,06,11,15,20.80
2015,07,06,11,16,20.80
2015,07,06,11,17,20.80
2015,07,06,11,18,20.90
2015,07,06,11,19,20.90
2015,07,06,11,20,20.90
2015,07,06,11,21,20.90
2015,07,06,11,22,20.90
2015,07,06,11,23,20.90
2015,07,06,11,24,20.90
2015,07,06,11,25,21.00
2015,07,06,11,26,21.10
2015,07,06,11,27,21.20
2015,07,06,11,28,21.30
2015,07,06,11,29,21.30
2015,07,06,11,30,21.30
2015,07,06,11,31,21.40
2015,07,06,11,32,21.40
2015,07,06,11,33,21.50
2015,07,06,11,34,21.50
2015,07,06,11,35,21.50
2015,07,06,11,36,21.50
2015,07,06,11,37,21.50
2015,07,06,11,38,21.50
2015,07,06,11,39,21.50
2015,07,06,11,40,21.60
2015,07,06,11,41,21.60
2015,07,06,11,42,21.60
2015,07,06,11,43,21.60
2015,07,06,11,44,21.60
2015,07,06,11,45,21.60
2015,07,06,11,46,21.60
2015,07,06,11,47,21.60
2015,07,06,11,48,21.70
2015,07,06,11,49,21.70
2015,07,06,11,50,21.70
2015,07,06,11,51,21.60
2015,07,06,11,52,21.60
2015,07,06,11,53,21.60
2015,07,06,11,54,21.40
2015,07,06,11,55,21.20
2015,07,06,11,56,21.10
2015,07,06,11,57,21.00
2015,07,06,11,58,20.90
2015,07,06,11,59,20.80
2015,07,06,12,00,20.80
2015,07,06,12,01,20.90
2015,07,06,12,02,20.90
2015,07,06,12,03,21.00
2015,07,06,12,04,21.10
2015,07,06,12,05,21.10
2015,07,06,12,06,21.20
2015,07,06,12,07,21.30
2015,07,06,12,08,21.30
2015,07,06,12,09,21.40
2015,07,06,12,10,21.50
2015,07,06,12,11,21.50
2015,07,06,12,12,21.60
2015,07,06,12,13,21.70
2015,07,06,12,14,21.70
2015,07,06,12,15,21.70
2015,07,06,12,16,21.70
2015,07,06,12,17,21.70
2015,07,06,12,18,21.70
2015,07,06,12,19,21.70
2015,07,06,12,20,21.60
2015,07,06,12,21,21.60
2015,07,06,12,22,21.50
2015,07,06,12,23,21.50
2015,07,06,12,24,21.50
2015,07,06,12,25,21.60
2015,07,06,12,26,21.60
2015,07,06,12,27,21.50
2015,07,06,12,28,21.40
2015,07,06,12,29,21.30
2015,07,06,12,30,21.20
2015,07,06,12,31,21.10
2015,07,06,12,32,21.00
2015,07,06,12,33,20.90
2015,07,06,12,34,20.80
2015,07,06,12,35,20.90
2015,07,06,12,36,20.90
2015,07,06,12,37,21.00
2015,07,06,12,38,21.10
2015,07,06,12,39,21.10
2015,07,06,12,40,21.10
2015,07,06,12,41,21.10
2015,07,06,12,42,21.10
2015,07,06,12,43,21.20
2015,07,06,12,44,21.20
2015,07,06,12,45,21.30
2015,07,06,12,46,21.40
2015,07,06,12,47,21.40
2015,07,06,12,48,21.50
2015,07,06,12,49,21.70
2015,07,06,12,50,21.80
2015,07,06,12,51,21.80
2015,07,06,12,52,21.90
2015,07,06,12,53,22.00
2015,07,06,12,54,22.00
2015,07,06,12,55,22.10
2015,07,06,12,56,22.20
2015,07,06,12,57,22.30
2015,07,06,12,58,22.30
2015,07,06,12,59,22.30
2015,07,06,13,00,22.40
2015,07,06,13,01,22.50
2015,07,06,13,02,22.60
2015,07,06,13,03,22.60
2015,07,06,13,04,22.70
2015,07,06,13,05,22.80
2015,07,06,13,06,22.90
2015,07,06,13,07,22.90
2015,07,06,13,08,22.80
2015,07,06,13,09,22.80
2015,07,06,13,10,22.80
2015,07,06,13,11,22.70
2015,07,06,13,12,22.70
2015,07,06,13,13,22.70
2015,07,06,13,14,22.60
2015,07,06,13,15,22.50
2015,07,06,13,16,22.40
2015,07,06,13,17,22.30
2015,07,06,13,18,22.20
2015,07,06,13,19,22.10
2015,07,06,13,20,21.80
2015,07,06,13,21,21.70
2015,07,06,13,22,21.60
2015,07,06,13,23,21.50
2015,07,06,13,24,21.50
2015,07,06,13,25,21.40
2015,07,06,13,26,21.50
2015,07,06,13,27,21.50
2015,07,06,13,28,21.60
2015,07,06,13,29,21.60
2015,07,06,13,30,21.60
2015,07,06,13,31,21.50
2015,07,06,13,32,21.40
2015,07,06,13,33,21.30
2015,07,06,13,34,21.30
2015,07,06,13,35,21.20
2015,07,06,13,36,21.10
2015,07,06,13,37,21.10
2015,07,06,13,38,21.10
2015,07,06,13,39,21.20
2015,07,06,13,40,21.20
2015,07,06,13,41,21.30
2015,07,06,13,42,21.30
2015,07,06,13,43,21.30
2015,07,06,13,44,21.30
2015,07,06,13,45,21.30
2015,07,06,13,46,21.30
2015,07,06,13,47,21.30
2015,07,06,13,48,21.30
2015,07,06,13,49,21.30
2015,07,06,13,50,21.30
2015,07,06,13,51,21.40
2015,07,06,13,52,21.40
2015,07,06,13,53,21.50
2015,07,06,13,54,21.50
2015,07,06,13,55,21.50
2015,07,06,13,56,21.60
2015,07,06,13,57,21.60
2015,07,06,13,58,21.70
2015,07,06,13,59,21.70
2015,07,06,14,00,21.70
2015,07,06,14,01,21.60
2015,07,06,14,02,21.60
2015,07,06,14,03,21.60
2015,07,06,14,04,21.60
2015,07,06,14,05,21.50
2015,07,06,14,06,21.40
2015,07,06,14,07,21.40
2015,07,06,14,08,21.40
2015,07,06,14,09,21.40
2015,07,06,14,10,21.30
2015,07,06,14,11,21.30
2015,07,06,14,12,21.30
2015,07,06,14,13,21.40
2015,07,06,14,14,21.40
2015,07,06,14,15,21.50
2015,07,06,14,16,21.60
2015,07,06,14,17,21.70
2015,07,06,14,18,21.70
2015,07,06,14,19,21.70
2015,07,06,14,20,21.60
2015,07,06,14,21,21.60
2015,07,06,14,22,21.50
2015,07,06,14,23,21.50
2015,07,06,14,24,21.40
2015,07,06,14,25,21.40
2015,07,06,14,26,21.40
2015,07,06,14,27,21.30
2015,07,06,14,28,21.30
2015,07,06,14,29,21.30
2015,07,06,14,30,21.30
2015,07,06,14,31,21.30
2015,07,06,14,32,21.20
2015,07,06,14,33,21.20
2015,07,06,14,34,21.20
2015,07,06,14,35,21.20
2015,07,06,14,36,21.20
2015,07,06,14,37,21.20
2015,07,06,14,38,21.10
2015,07,06,14,39,21.00
2015,07,06,14,40,21.00
2015,07,06,14,41,21.00
2015,07,06,14,42,21.10
2015,07,06,14,43,21.10
2015,07,06,14,44,21.10
2015,07,06,14,45,21.10
2015,07,06,14,46,21.20
2015,07,06,14,47,21.30
2015,07,06,14,48,21.30
2015,07,06,14,49,21.30
2015,07,06,14,50,21.30
2015,07,06,14,51,21.30
2015,07,06,14,52,21.30
2015,07,06,14,53,21.30
2015,07,06,14,54,21.40
2015,07,06,14,55,21.40
2015,07,06,14,56,21.50
2015,07,06,14,57,21.60
2015,07,06,14,58,21.70
2015,07,06,14,59,21.80
2015,07,06,15,00,21.80
2015,07,06,15,01,21.80
2015,07,06,15,02,21.90
2015,07,06,15,03,21.80
2015,07,06,15,04,21.80
2015,07,06,15,05,21.70
2015,07,06,15,06,21.70
2015,07,06,15,07,21.60
2015,07,06,15,08,21.60
2015,07,06,15,09,21.70
2015,07,06,15,10,21.70
2015,07,06,15,11,21.60
2015,07,06,15,12,21.50
2015,07,06,15,13,21.50
2015,07,06,15,14,21.50
2015,07,06,15,15,21.50
2015,07,06,15,16,21.60
2015,07,06,15,17,21.60
2015,07,06,15,18,21.60
2015,07,06,15,19,21.50
2015,07,06,15,20,21.50
2015,07,06,15,21,21.50
2015,07,06,15,22,21.50
2015,07,06,15,23,21.50
2015,07,06,15,24,21.60
2015,07,06,15,25,21.50
2015,07,06,15,26,21.40
2015,07,06,15,27,21.40
2015,07,06,15,28,21.40
2015,07,06,15,29,21.40
2015,07,06,15,30,21.30
2015,07,06,15,31,21.30
2015,07,06,15,32,21.30
2015,07,06,15,33,21.30
2015,07,06,15,34,21.30
2015,07,06,15,35,21.30
2015,07,06,15,36,21.30
2015,07,06,15,37,21.40
2015,07,06,15,38,21.40
2015,07,06,15,39,21.40
2015,07,06,15,40,21.40
2015,07,06,15,41,21.50
2015,07,06,15,42,21.50
2015,07,06,15,43,21.60
2015,07,06,15,44,21.60
2015,07,06,15,45,21.60
2015,07,06,15,46,21.60
2015,07,06,15,47,21.60
2015,07,06,15,48,21.50
2015,07,06,15,49,21.50
2015,07,06,15,50,21.40
2015,07,06,15,51,21.30
2015,07,06,15,52,21.30
2015,07,06,15,53,21.30
2015,07,06,15,54,21.30
2015,07,06,15,55,21.30
2015,07,06,15,56,21.40
2015,07,06,15,57,21.50
2015,07,06,15,58,21.60
2015,07,06,15,59,21.60
2015,07,06,16,00,21.70
2015,07,06,16,01,21.70
2015,07,06,16,02,21.70
2015,07,06,16,03,21.70
2015,07,06,16,04,21.60
2015,07,06,16,05,21.60
2015,07,06,16,06,21.50
2015,07,06,16,07,21.40
2015,07,06,16,08,21.40
2015,07,06,16,09,21.40
2015,07,06,16,10,21.40
2015,07,06,16,11,21.40
2015,07,06,16,12,21.40
2015,07,06,16,13,21.30
2015,07,06,16,14,21.30
2015,07,06,16,15,21.30
2015,07,06,16,16,21.40
2015,07,06,16,17,21.40
2015,07,06,16,18,21.50
2015,07,06,16,19,21.50
2015,07,06,16,20,21.50
2015,07,06,16,21,21.60
2015,07,06,16,22,21.60
2015,07,06,16,23,21.70
2015,07,06,16,24,21.70
2015,07,06,16,25,21.80
2015,07,06,16,26,21.80
2015,07,06,16,27,21.80
2015,07,06,16,28,21.90
2015,07,06,16,29,21.90
2015,07,06,16,30,22.00
2015,07,06,16,31,22.00
2015,07,06,16,32,22.10
2015,07,06,16,33,22.10
2015,07,06,16,34,22.10
2015,07,06,16,35,22.00
2015,07,06,16,36,22.00
2015,07,06,16,37,22.10
2015,07,06,16,38,22.10
2015,07,06,16,39,22.20
2015,07,06,16,40,22.20
2015,07,06,16,41,22.20
2015,07,06,16,42,22.20
2015,07,06,16,43,22.20
2015,07,06,16,44,22.10
2015,07,06,16,45,22.10
2015,07,06,16,46,22.10
2015,07,06,16,47,22.00
2015,07,06,16,48,21.80
2015,07,06,16,49,21.70
2015,07,06,16,50,21.60
2015,07,06,16,51,21.50
2015,07,06,16,52,21.40
2015,07,06,16,53,21.40
2015,07,06,16,54,21.30
2015,07,06,16,55,21.30
2015,07,06,16,56,21.30
2015,07,06,16,57,21.30
2015,07,06,16,58,21.30
2015,07,06,16,59,21.30
2015,07,06,17,00,21.30
2015,07,06,17,01,21.30
2015,07,06,17,02,21.30
2015,07,06,17,03,21.30
2015,07,06,17,04,21.30
2015,07,06,17,05,21.40
2015,07,06,17,06,21.40
2015,07,06,17,07,21.40
2015,07,06,17,08,21.50
2015,07,06,17,09,21.50
2015,07,06,17,10,21.50
2015,07,06,17,11,21.50
2015,07,06,17,12,21.60
2015,07,06,17,13,21.60
2015,07,06,17,14,21.70
2015,07,06,17,15,21.70
2015,07,06,17,16,21.80
2015,07,06,17,17,21.80
2015,07,06,17,18,21.80
2015,07,06,17,19,21.70
2015,07,06,17,20,21.70
2015,07,06,17,21,21.70
2015,07,06,17,22,21.70
2015,07,06,17,23,21.60